This is the latest recevied weather packets stored in our database for station/object DK6OC-10. If no packets are shown the sender has not sent any weather packets the latest 1 day(s).
| Time | Temp. | Humidity | Pressure | Rain* | Wind** | Luminosity | Snow |
|---|---|---|---|---|---|---|---|
| 1777721456 | 28.89° C | 25% | 1013.6 hPa | - | - | - | - |
| 1777719656 | 27.78° C | 26% | 1014 hPa | - | - | - | - |
| 1777717856 | 27.22° C | 26% | 1014.3 hPa | - | - | - | - |
| 1777716056 | 25.56° C | 26% | 1014.5 hPa | - | - | - | - |
| 1777714256 | 25° C | 27% | 1014.9 hPa | - | - | - | - |
| 1777712456 | 24.44° C | 28% | 1015.2 hPa | - | - | - | - |
| 1777710656 | 23.33° C | 28% | 1015.1 hPa | - | - | - | - |
| 1777708856 | 22.22° C | 29% | 1015 hPa | - | - | - | - |
| 1777707056 | 21.67° C | 29% | 1015.4 hPa | - | - | - | - |
| 1777705256 | 21.11° C | 29% | 1015.5 hPa | - | - | - | - |
| 1777703455 | 20.56° C | 28% | 1015.4 hPa | - | - | - | - |
| 1777701655 | 20.56° C | 28% | 1015.4 hPa | - | - | - | - |
| 1777699855 | 20° C | 28% | 1015.5 hPa | - | - | - | - |
| 1777698055 | 20° C | 27% | 1015.3 hPa | - | - | - | - |
| 1777696255 | 20° C | 27% | 1015.3 hPa | - | - | - | - |
| 1777694455 | 20° C | 27% | 1015.4 hPa | - | - | - | - |
| 1777692655 | 20.56° C | 26% | 1015.6 hPa | - | - | - | - |
| 1777690855 | 20.56° C | 26% | 1015.7 hPa | - | - | - | - |
| 1777689055 | 21.11° C | 26% | 1015.9 hPa | - | - | - | - |
| 1777687255 | 21.11° C | 25% | 1015.9 hPa | - | - | - | - |
| 1777685454 | 21.11° C | 25% | 1016.1 hPa | - | - | - | - |
| 1777683654 | 21.67° C | 25% | 1016.4 hPa | - | - | - | - |
* Rain since midnight (hover to see other rain measurements)
** Current wind speed in m/s (hover to see current wind gust speed)